Monett, MO

12:03 PM CDT on June 29, 2017 (GMT -0500)
Monett

Weather History for KHFJ - April, 2014

Change the Weather History Date:

Saturday, April 26, 2014

  Actual Average (KJLN) Record (KJLN)
Temperature  
Mean Temperature 66 °F -  
Max Temperature 80 °F 73 °F 90 °F (1987)
Min Temperature 51 °F 51 °F 27 °F (1976)
Growing Degree Days 16 (Base 50)    
Moisture  
Dew Point 47 °F    
Average Humidity 53    
Maximum Humidity 71    
Minimum Humidity 34    
Precipitation  
Precipitation 0.00 in - - ()
Sea Level Pressure  
Sea Level Pressure 29.80 in    
Wind  
Wind Speed 9 mph (SE)    
Max Wind Speed 20 mph    
Max Gust Speed 26 mph    
Visibility 10 miles    
Events Rain    
Averages and records for this station are not official NWS values.
T = Trace of Precipitation, MM = Missing Value Source: NWS Daily Summary

Daily Weather History Graph

Daily Weather History Graph

Search for Another Location

Airport or City:

Trip Planner

Search our weather history database for the weather conditions in past years. The results will help you decide how hot, cold, wet, or windy it might be!

Date:

Astronomy

Apr. 26, 2014 Rise Set
Actual Time 6:27 AM CDT 8:00 PM CDT
Civil Twilight 6:00 AM CDT 8:28 PM CDT
Nautical Twilight 5:27 AM CDT 9:01 PM CDT
Astronomical Twilight 4:52 AM CDT 9:36 PM CDT
Moon 4:47 AM CDT (4/26) 5:33 PM CDT (4/26)
Length of Visible Light 14h 27m
Length of Day
13h 32m
Waning Crescent, 8% of the Moon is Illuminated
Apr 26
Waning Crescent
Apr 29
New
May 6
First Quarter
May 14
Full
May 21
Last Quarter

Hourly Weather History & Observations

Time (CDT) Temp. Dew Point Humidity Pressure Visibility Wind Dir Wind Speed Gust Speed Precip Events Conditions
12:15 AM 59.0 °F 39.2 °F 48% 29.89 in 10.0 mi SE 5.8 mph - N/A   Clear
12:35 AM 57.2 °F 39.2 °F 51% 29.90 in 10.0 mi SE 5.8 mph - N/A   Clear
12:55 AM 55.4 °F 39.2 °F 54% 29.90 in 10.0 mi SSE 5.8 mph - N/A   Clear
1:15 AM 55.4 °F 39.2 °F 54% 29.90 in 10.0 mi SSE 4.6 mph - N/A   Clear
1:35 AM 53.6 °F 41.0 °F 62% 29.89 in 10.0 mi SE 5.8 mph - N/A   Clear
1:55 AM 53.6 °F 39.2 °F 58% 29.88 in 10.0 mi SE 5.8 mph - N/A   Clear
2:15 AM 53.6 °F 39.2 °F 58% 29.88 in 10.0 mi SE 3.5 mph - N/A   Clear
2:35 AM 53.6 °F 39.2 °F 58% 29.88 in 10.0 mi SE 4.6 mph - N/A   Clear
2:55 AM 53.6 °F 41.0 °F 62% 29.87 in 10.0 mi SE 5.8 mph - N/A   Clear
3:15 AM 51.8 °F 41.0 °F 67% 29.87 in 10.0 mi SE 6.9 mph - N/A   Clear
3:35 AM 51.8 °F 41.0 °F 67% 29.87 in 10.0 mi SE 6.9 mph - N/A   Clear
3:55 AM 51.8 °F 41.0 °F 67% 29.86 in 10.0 mi SE 8.1 mph - N/A   Clear
4:15 AM 53.6 °F 41.0 °F 62% 29.86 in 10.0 mi SE 6.9 mph - N/A   Clear
4:35 AM 53.6 °F 41.0 °F 62% 29.86 in 10.0 mi SE 8.1 mph - N/A   Clear
4:55 AM 53.6 °F 41.0 °F 62% 29.86 in 10.0 mi ESE 8.1 mph - N/A   Clear
5:15 AM 51.8 °F 41.0 °F 67% 29.87 in 10.0 mi ESE 6.9 mph - N/A   Scattered Clouds
5:35 AM 51.8 °F 42.8 °F 71% 29.88 in 10.0 mi SE 6.9 mph - N/A   Clear
5:55 AM 51.8 °F 41.0 °F 67% 29.87 in 10.0 mi SE 11.5 mph - N/A   Scattered Clouds
6:15 AM 55.4 °F 41.0 °F 58% 29.84 in 10.0 mi SSE 10.4 mph - N/A   Scattered Clouds
6:35 AM 59.0 °F 41.0 °F 51% 29.84 in 10.0 mi SSE 12.7 mph 20.7 mph N/A   Scattered Clouds
6:55 AM 59.0 °F 41.0 °F 51% 29.88 in 10.0 mi ESE 3.5 mph - N/A   Scattered Clouds
7:15 AM 59.0 °F 42.8 °F 55% 29.89 in 10.0 mi SSE 6.9 mph - N/A   Scattered Clouds
7:35 AM 55.4 °F 42.8 °F 63% 29.88 in 10.0 mi South 5.8 mph - N/A   Scattered Clouds
7:55 AM 55.4 °F 42.8 °F 63% 29.88 in 10.0 mi South 11.5 mph - N/A Rain Light Rain
8:15 AM 55.4 °F 42.8 °F 63% 29.89 in 10.0 mi South 10.4 mph - N/A Rain Light Rain
8:35 AM 55.4 °F 42.8 °F 63% 29.88 in 10.0 mi SSE 11.5 mph - N/A Rain Light Rain
8:55 AM 57.2 °F 44.6 °F 63% 29.86 in 10.0 mi SE 11.5 mph - N/A   Overcast
9:15 AM 59.0 °F 44.6 °F 59% 29.87 in 10.0 mi ESE 6.9 mph - N/A   Mostly Cloudy
9:35 AM 59.0 °F 46.4 °F 63% 29.88 in 10.0 mi SE 5.8 mph - N/A   Overcast
9:55 AM 60.8 °F 46.4 °F 59% 29.87 in 10.0 mi ESE 9.2 mph - N/A   Overcast
10:15 AM 60.8 °F 48.2 °F 63% 29.87 in 10.0 mi SE 8.1 mph - N/A   Overcast
10:35 AM 60.8 °F 48.2 °F 63% 29.88 in 10.0 mi SE 6.9 mph - N/A   Overcast
10:55 AM 62.6 °F 50.0 °F 63% 29.89 in 10.0 mi East 4.6 mph - N/A   Overcast
11:15 AM 64.4 °F 50.0 °F 59% 29.87 in 10.0 mi SE 9.2 mph - N/A   Mostly Cloudy
11:35 AM 69.8 °F 51.8 °F 53% 29.87 in 10.0 mi SE 10.4 mph - N/A   Scattered Clouds
11:55 AM 69.8 °F 50.0 °F 49% 29.86 in 10.0 mi SSE 11.5 mph - N/A   Scattered Clouds
12:15 PM 69.8 °F 53.6 °F 56% 29.84 in 10.0 mi SE 10.4 mph - N/A   Clear
12:35 PM 73.4 °F 53.6 °F 50% 29.83 in 10.0 mi SSE 13.8 mph 19.6 mph N/A   Clear
12:55 PM 75.2 °F 53.6 °F 47% 29.81 in 10.0 mi SSE 15.0 mph 20.7 mph N/A   Clear
1:15 PM 77.0 °F 53.6 °F 44% 29.81 in 10.0 mi SSE 16.1 mph 20.7 mph N/A   Clear
1:35 PM 77.0 °F 53.6 °F 44% 29.80 in 10.0 mi SSE 18.4 mph 23.0 mph N/A   Clear
1:55 PM 78.8 °F 53.6 °F 42% 29.79 in 10.0 mi South 19.6 mph 26.5 mph N/A   Clear
2:15 PM 78.8 °F 53.6 °F 42% 29.78 in 10.0 mi South 19.6 mph 25.3 mph N/A   Clear
2:35 PM 78.8 °F 51.8 °F 39% 29.77 in 10.0 mi SSE 16.1 mph 23.0 mph N/A   Clear
2:55 PM 78.8 °F 51.8 °F 39% 29.76 in 10.0 mi South 18.4 mph 24.2 mph N/A   Clear
3:15 PM 80.6 °F 51.8 °F 37% 29.74 in 10.0 mi SSE 17.3 mph 25.3 mph N/A   Clear
3:35 PM 80.6 °F 51.8 °F 37% 29.73 in 10.0 mi SSE 17.3 mph 25.3 mph N/A   Clear
3:55 PM 80.6 °F 50.0 °F 34% 29.71 in 10.0 mi SSE 19.6 mph 26.5 mph N/A   Clear
4:15 PM 80.6 °F 50.0 °F 34% 29.70 in 10.0 mi SSE 17.3 mph 24.2 mph N/A   Clear
4:35 PM 80.6 °F 50.0 °F 34% 29.70 in 10.0 mi SSE 16.1 mph 24.2 mph N/A   Clear
4:55 PM 80.6 °F 51.8 °F 37% 29.70 in 10.0 mi SSE 13.8 mph 25.3 mph N/A   Clear
5:15 PM 80.6 °F 50.0 °F 34% 29.69 in 10.0 mi SSE 15.0 mph 23.0 mph N/A   Clear
5:35 PM 80.6 °F 50.0 °F 34% 29.69 in 10.0 mi South 13.8 mph 25.3 mph N/A   Clear
5:55 PM 80.6 °F 50.0 °F 34% 29.69 in 10.0 mi SSE 17.3 mph 23.0 mph N/A   Clear
6:15 PM 78.8 °F 50.0 °F 36% 29.69 in 10.0 mi South 15.0 mph 19.6 mph N/A   Clear
6:35 PM 78.8 °F 50.0 °F 36% 29.69 in 10.0 mi SSE 15.0 mph 23.0 mph N/A   Clear
6:55 PM 77.0 °F 50.0 °F 39% 29.68 in 10.0 mi SSE 17.3 mph 23.0 mph N/A   Clear
7:15 PM 75.2 °F 50.0 °F 41% 29.68 in 10.0 mi SSE 12.7 mph - N/A   Clear
7:35 PM 73.4 °F 51.8 °F 47% 29.67 in 10.0 mi SSE 16.1 mph 19.6 mph N/A   Clear
7:55 PM 71.6 °F 51.8 °F 50% 29.68 in 10.0 mi SSE 12.7 mph - N/A   Clear
8:15 PM 73.4 °F 51.8 °F 47% 29.67 in 10.0 mi SSE 13.8 mph 19.6 mph N/A   Clear
8:35 PM 71.6 °F 51.8 °F 50% 29.68 in 10.0 mi SE 10.4 mph - N/A   Clear
9:15 PM 69.8 °F 51.8 °F 53% 29.69 in 10.0 mi SE 12.7 mph - N/A   Clear
9:35 PM 71.6 °F 53.6 °F 53% 29.69 in 10.0 mi SE 11.5 mph - N/A   Clear
9:55 PM 69.8 °F 53.6 °F 56% 29.69 in 10.0 mi SE 9.2 mph - N/A   Clear
10:15 PM 69.8 °F 53.6 °F 56% 29.69 in 10.0 mi SE 9.2 mph - N/A   Clear
10:35 PM 69.8 °F 53.6 °F 56% 29.68 in 10.0 mi SE 12.7 mph 16.1 mph N/A   Clear
10:55 PM 69.8 °F 53.6 °F 56% 29.66 in 10.0 mi SE 13.8 mph - N/A   Clear
11:15 PM 68.0 °F 55.4 °F 64% 29.66 in 10.0 mi SE 12.7 mph - N/A   Clear
11:35 PM 68.0 °F 55.4 °F 64% 29.65 in 10.0 mi SE 10.4 mph - N/A   Clear
11:55 PM 68.0 °F 55.4 °F 64% 29.64 in 10.0 mi SSE 12.7 mph - N/A   Clear